Location: Bethera
(33.2010°N, 79.7880°W)
Time: 15:55:25
(UTC-04:00)

Daily predictions for brighter satellites

Satellite Brightness Start Highest point End
(mag) Time Altitude Azimuth Time Altitude Azimuth Time Altitude Azimuth
S3M 4.1 20:53:10 10° N 20:59:11 56° E 21:05:11 10° SSE
Cosmos 1538 Rocket 4.1 20:55:09 10° N 21:00:29 68° ENE 21:05:49 10° SSE
Cosmos 2228 Rocket 3.1 20:58:40 10° N 21:03:10 75° E 21:07:42 10° S
CZ-4 DEB 3.0 21:01:55 10° SSE 21:05:02 52° ENE 21:08:10 10° N
Delta 2 Rocket 3.4 21:02:39 10° W 21:06:30 63° N 21:09:59 10° ENE
Cosmos 1908 4.3 21:05:58 10° NNE 21:09:21 28° E 21:12:44 10° SE
Cosmos 1674 3.3 21:05:52 10° SSE 21:09:23 37° E 21:12:57 10° NNE
Cosmos 2151 3.9 21:07:50 10° SSE 21:11:24 28° E 21:14:59 10° NNE
Resurs 01 Rocket 4.2 21:09:38 10° SW 21:12:54 20° W 21:16:11 10° NW
NOSS 3-1 (A) 4.1 21:08:53 10° S 21:13:50 30° ESE 21:19:06 10° NE
Cosmos 773 Rocket 4.3 21:09:00 10° N 21:14:03 49° ENE 21:19:07 10° SE
BREEZE-M DEB (TANK) 4.2 21:16:57 10° SSE 21:17:27 10° SSE 21:17:37 10° SE
deb Chang Zheng 4 3.8 21:13:45 10° NNE 21:17:57 48° E 21:22:09 10° S
Cosmos 2058 4.3 21:18:45 12° SE 21:21:28 21° E 21:24:33 10° NE
Cosmos 1515 Rocket 3.5 21:20:42 10° N 21:25:08 78° E 21:29:30 10° S
Cosmos 1833 4.5 21:19:51 10° SSW 21:25:33 75° WNW 21:31:15 10° NNE
Meteor 2-20 Rocket 4.5 21:24:24 10° S 21:30:29 66° E 21:36:34 10° NNE
Cosmos 1437 2.8 21:31:19 10° S 21:34:31 56° E 21:37:44 10° NNE
Hubble Space Telescope 2.2 21:32:52 10° SSW 21:35:51 19° SSE 21:36:49 18° SE
H-2A R/B 4.2 21:32:35 10° SSW 21:36:09 36° W 21:39:41 10° NNW
ATLAS 2AS CENTAUR R/B 4.1 21:32:33 13° SE 21:36:13 19° ESE 21:41:20 10° ENE
Cosmos 1151 Rocket 3.1 21:33:37 10° N 21:37:53 59° E 21:41:22 15° SSE
USA 186 3.9 21:41:24 10° SW 21:42:41 14° W 21:44:00 10° WNW
ERS-1 Rocket 3.0 21:39:35 10° S 21:44:36 81° WSW 21:49:40 10° NNW
Envisat 3.1 21:42:21 16° SSE 21:46:18 60° ENE 21:51:18 10° N
COSMOS 2428 3.7 21:41:22 10° N 21:46:24 32° ENE 21:49:36 19° ESE
Cosmos 1437 Rocket 3.0 21:43:01 10° NNW 21:46:50 65° W 21:50:26 11° S
Cosmos 2266 Rocket 4.1 21:40:42 10° S 21:47:01 84° W 21:53:16 10° N
Cosmos 1939 Rocket 2.7 21:44:35 17° SSE 21:47:32 75° ENE 21:51:26 10° N
Cosmos 1805 Rocket 3.9 21:45:34 17° SSE 21:48:44 45° E 21:52:59 10° NNE
ERBS 3.5 21:49:50 25° ESE 21:49:50 25° ESE 21:52:12 10° ENE
Sakura Rocket 4.1 21:46:19 10° SSW 21:49:30 20° SSE 21:49:37 20° SSE
Cosmos 2219 Rocket 4.0 21:46:45 10° NNE 21:50:16 17° ENE 21:53:00 12° E
NOSS 3-1 (C) 3.4 21:53:54 10° SSW 21:59:39 82° WNW 22:05:58 10° NNE
Cosmos 2315 Rocket 4.0 21:55:06 10° N 22:01:15 62° E 22:05:19 22° SSE
CZ-4 SHROUD 3.4 22:02:06 42° ESE 22:02:47 53° ENE 22:05:51 10° N
Cosmos 1726 3.3 22:00:03 10° NNE 22:03:19 27° E 22:03:46 26° E
OTV 4 0.3 22:00:42 10° WSW 22:03:39 65° SSE 22:04:07 53° ESE
OAO 2 Rocket 3.3 21:58:40 10° WSW 22:03:59 83° SSE 22:09:07 11° ENE
CZ-3A R/B 4.0 21:24:29 10° WSW 22:04:09 52° S 22:07:48 25° ESE
Cosmos 1937 Rocket 3.9 22:02:33 24° SSE 22:05:10 41° ESE 22:10:01 10° NNE
Cosmos 2112 Rocket 4.0 22:00:19 10° NNW 22:05:35 78° ENE 22:08:34 26° SSE
H-2A R/B 2.5 22:02:13 17° S 22:05:41 63° WSW 22:10:12 10° NNW
Cosmos 1666 Rocket 3.6 22:09:24 30° SSE 22:11:26 61° E 22:15:48 10° NNE
Cosmos 2298 Rocket 3.9 22:06:16 10° SSW 22:11:34 84° ESE 22:16:55 10° NNE
Cosmos 1707 Rocket 3.8 22:07:40 10° N 22:11:56 51° E 22:13:15 37° SE
Cosmos 1244 Rocket 4.5 22:06:48 14° S 22:12:13 73° E 22:18:29 10° N
Cosmos 2219 4.0 22:07:57 10° SW 22:13:34 55° WNW 22:19:13 10° N
Tiangong 1 3.3 22:12:22 10° W 22:15:02 26° NNW 22:17:42 10° NE
CZ-4 R/B 4.0 22:15:58 10° NNE 22:20:44 50° E 22:22:06 38° SSE
Meteor 1-4 Rocket 3.7 22:18:03 10° NNE 22:21:09 30° ENE 22:21:09 30° ENE
Cosmos 2237 Rocket 3.7 22:19:12 10° N 22:23:28 21° ENE 22:25:15 18° E
Cosmos 2082 4.1 22:23:04 35° SE 22:24:25 40° ESE 22:29:43 10° NE
Cosmos 1470 Rocket 4.5 22:25:29 30° E 22:25:29 30° E 22:28:58 10° NNE
Cosmos 2333 4.5 22:19:54 10° N 22:25:32 55° ENE 22:27:36 36° SE
MetOp-B 4.1 22:23:58 32° SSE 22:26:36 90° SSW 22:31:59 10° NNW
DELTA 2 R/B (1) 3.5 22:21:05 10° WNW 22:26:39 76° SSW 22:28:40 40° SE
Cosmos 2322 4.3 22:21:39 10° NNW 22:27:10 51° WSW 22:30:31 23° S
Cosmos 1271 Rocket 3.5 22:25:08 10° N 22:28:32 36° ENE 22:28:32 36° ENE
Cosmos 1745 Rocket 4.2 22:27:23 34° SE 22:29:43 51° E 22:35:40 10° NNE
Cosmos 1703 3.3 22:32:28 55° E 22:32:28 55° E 22:36:12 10° NNE
CZ-4B R/B 3.5 22:27:33 10° N 22:32:49 83° WNW 22:36:13 22° SSW
Iridium 2 4.4 22:33:22 38° ENE 22:33:22 38° ENE 22:36:28 10° NNE
SL-14 R/B 3.5 22:31:35 36° SSW 22:33:02 69° W 22:37:01 10° N
Cosmos 2360 Rocket 3.1 22:28:52 10° NW 22:34:08 42° WSW 22:37:25 21° SSW
NOAA 11 4.3 22:32:40 41° SE 22:34:20 58° ENE 22:39:41 10° N
H-2A R/B 3.0 22:36:57 30° E 22:37:55 32° ENE 22:42:41 10° N
Cosmos 1626 3.8 22:41:26 24° NE 22:41:26 24° NE 22:43:24 10° NNE
Meteor 1-27 4.2 22:35:21 10° N 22:41:01 80° W 22:43:17 38° S
SPOT 5 3.8 22:41:59 26° SSW 22:44:03 41° W 22:48:32 10° NNW
Delta 2 Rocket 3.4 22:45:36 10° WNW 22:48:40 56° NW 22:48:40 56° NW
Cosmos 1898 Rocket 4.4 22:44:47 10° SW 22:49:45 47° WNW 22:54:47 10° N
SPOT 1/Viking Rocket 3.5 22:48:49 47° S 22:50:17 76° WSW 22:55:27 10° NNW
YAOGAN 6 3.3 22:50:10 45° WSW 22:50:23 45° W 22:53:52 10° NNW
Cosmos 1386 Rocket 4.5 22:51:00 48° SE 22:52:07 56° E 22:57:58 10° NNE
Cosmos 2227 Rocket 2.1 22:55:43 41° SSW 22:57:48 87° ESE 23:03:29 10° NNE
Lacrosse 4 Rocket 4.0 22:56:44 10° NNE 22:58:13 11° NE 22:58:32 11° ENE
Cosmos 1300 4.2 22:59:55 10° NNW 23:03:17 29° W 23:03:49 28° WSW
CARTOSAT-1 4.1 23:08:07 49° NE 23:08:07 49° NE 23:11:43 10° N
Cosmos 292 Rocket 3.7 23:03:48 10° NNW 23:08:34 77° WSW 23:08:39 77° WSW
Cosmos 2242 Rocket 3.9 23:04:38 10° NNW 23:09:03 58° W 23:09:20 56° WSW
Landsat 7 3.7 23:10:20 85° ENE 23:10:20 85° ENE 23:15:06 10° N
Cosmos 1862 Rocket 4.1 23:06:35 10° N 23:10:02 49° NE 23:10:02 49° NE
COSMOS 2455 4.1 23:07:52 10° N 23:12:55 27° NE 23:14:03 26° ENE
SL-16 R/B 3.5 23:13:04 10° N 23:17:46 26° ENE 23:18:12 26° ENE
Cosmos 2333 Rocket 2.1 23:13:15 10° NNW 23:19:01 75° ENE 23:19:24 71° ESE
FALCON 9 R/B 3.7 22:56:52 10° W 23:23:14 84° N 23:27:16 31° E
ARGOS 3.9 23:22:16 39° SW 23:23:20 44° W 23:28:28 10° NNW
Cosmos 2297 Rocket 2.2 23:23:48 65° SW 23:24:39 80° WNW 23:30:20 10° NNE
Cosmos 1455 3.5 23:22:02 10° N 23:24:28 38° N 23:24:28 38° N
Terra 1.9 23:26:42 72° N 23:26:42 72° N 23:30:57 10° NNW
ATLAS 2AS CENTAUR R/B 3.1 23:19:45 14° SW 23:26:17 73° WNW 23:34:17 10° NNE
COSMOS 2428 4.0 23:25:42 10° NW 23:30:29 29° WSW 23:31:38 27° WSW
DMSP B5D2-2 4.2 23:28:35 10° N 23:33:46 67° WNW 23:34:05 65° W
Spot 4 4.1 23:34:28 64° N 23:34:28 64° N 23:38:38 10° N
Cosmos 2219 Rocket 2.4 23:29:06 10° NNW 23:34:35 58° WSW 23:34:43 58° WSW
IGS 5A 4.4 23:36:25 45° NNW 23:36:25 45° NNW 23:39:24 10° NNW
ATLAS 3B R/B 3.1 23:37:44 10° NNW 23:44:22 47° NE 23:45:16 44° ENE
OAO 2 Rocket 3.9 23:43:40 10° W 23:48:06 58° WNW 23:48:06 58° WNW
